Regional Weather Roundup
Issued by NWS

Home | Current Version | Previous Version | Graphics & Text | Print | Product List | Glossary On
Versions: 1 2 3 4 5 6 7 8 9 10 11 12 13 14 15 16 17 18 19 20 21 22 23 24 25 26 27 28 29 30 31 32 33 34 35 36 37 38 39 40 41 42 43 44 45 46 47 48 49 50
000
ASUS43 KBIS 271520
RWRND

NORTH DAKOTA REGIONAL WEATHER ROUNDUP
NATIONAL WEATHER SERVICE BISMARCK ND
900 AM CST THU NOV 27 2014

NOTE: "FAIR" INDICATES FEW OR NO CLOUDS BELOW 12,000 FEET WITH NO
SIGNIFICANT WEATHER AND/OR OBSTRUCTIONS TO VISIBILITY.


NDZ001>003-009>011-017-271600-
NORTHWEST NORTH DAKOTA

CITY           SKY/WX    TMP DP  RH WIND       PRES   REMARKS
WILLISTON      CLOUDY    14   9  80 CALM      30.11F
MINOT          CLOUDY     3  -1  83 SE6       30.22F FOG     WCI  -8
MINOT AFB      CLOUDY     0  -3  86 SE7       30.23F WCI -13
$$

NDZ018>021-031>035-040>046-271600-
SOUTHWEST NORTH DAKOTA

CITY           SKY/WX    TMP DP  RH WIND       PRES   REMARKS
BISMARCK       MOCLDY    -6 -10  83 E8        30.33F WCI -21
DICKINSON      FLURRIES  16  13  88 S14       30.11F WCI   2
GARRISON         N/A      6   4  91 SE13      30.24F WCI -10
HETTINGER ARPT LGT SNOW  14  10  84 SE12      30.14F FOG     WCI   0
$$

NDZ004>008-012>016-024-026-027-054-271600-
NORTHEAST NORTH DAKOTA

CITY           SKY/WX    TMP DP  RH WIND       PRES   REMARKS
GRAND FORKS    PTCLDY    -8 -12  83 S7        30.49F WCI -23
GRND FRKS AFB  PTCLDY    -8 -13  77 S5        30.47F WCI -19
DEVILS LAKE    CLEAR     -2 -13  60 S8        30.35S WCI -17
$$

NDZ022-023-025-028>030-036>039-047>053-271600-
SOUTHEAST NORTH DAKOTA

CITY           SKY/WX    TMP DP  RH WIND       PRES   REMARKS
FARGO          PTCLDY    -6 -10  83 S3        30.52F
JAMESTOWN      PTCLDY   -13 -19  75 S7        30.40S WCI -29
$$




USA.gov is the U.S. government's official web portal to all federal, state and local government web resources and services.